Location: Monrovia
(34.7865°N, 86.7139°W)
Time: 00:23:54
(UTC+00:00)

deb Chang Zheng 4 - Pass Details

Date: 14 July 2020
Orbit: 603 x 626 km, 98.6° (Epoch: 12 August)

Event Time Altitude Azimuth Distance (km) Brightness Sun altitude
Rises 09:53:02 0° 11° (N) 2,870 7.7 -9.9°
Reaches altitude 10° 09:55:12 10° 10° (N) 1,965 6.8 -9.5°
Maximum altitude 09:59:28 79° 284° (WNW) 625 3.5 -8.8°
Drops below altitude 10° 10:03:44 10° 198° (SSW) 1,965 5.7 -8.1°
Enters shadow 10:05:15 - 197° (SSW) 2,599 6.3 -7.8°
